Weather History for Sioux City, IA

Change the Weather History Date:

Thursday, January 3, 2013

  Actual Average Record
Temperature  
Mean Temperature 18 °F 20 °F  
Max Temperature 30 °F 30 °F 54 °F (1909)
Min Temperature 6 °F 10 °F -22 °F (1919)
Degree Days  
Heating Degree Days 47 45  
Month to date heating degree days 153 135  
Since 1 July heating degree days 2836 2927  
Cooling Degree Days 0 0  
Month to date cooling degree days 0 0  
Year to date cooling degree days 0 0  
Moisture  
Dew Point 14 °F    
Average Humidity 83    
Maximum Humidity 92    
Minimum Humidity 73    
Precipitation  
Precipitation T in 0.02 in 1.09 in (1949)
Month to date precipitation 0.01 0.06  
Year to date precipitation 0.01 0.06  
Snow  
Snow T in 0.20 in 5.50 in (1897)
Month to date snowfall 0.1 0.6  
Since 1 July snowfall 10.1 13.8  
Snow Depth 2.00 in    
Sea Level Pressure  
Sea Level Pressure 30.35 in    
Wind  
Wind Speed 10 mph (WNW)    
Max Wind Speed 28 mph    
Max Gust Speed 32 mph    
Visibility 10 miles    
Events Snow    
T = Trace of Precipitation, MM = Missing Value Source: NWS Daily Summary

Daily Weather History Graph

Daily Weather History Graph

Search for Another Location

Airport:

Trip Planner

Search our weather history database for the weather conditions in past years. The results will help you decide how hot, cold, wet, or windy it might be!

Date:

Astronomy

Jan. 03, 2013 Rise Set
Actual Time 7:54 AM CST 5:05 PM CST
Civil Twilight 7:23 AM CST 5:37 PM CST
Nautical Twilight 6:47 AM CST 6:12 PM CST
Astronomical Twilight 6:13 AM CST 6:46 PM CST
Moon 11:51 PM CST (1/3) 10:59 AM CST (1/3)
Length of Visible Light 10h 14m
Length of Day
9h 10m
Waning Gibbous, 65% of the Moon is Illuminated
Jan 3
Waning Gibbous
Jan 4
Last Quarter
Jan 11
New
Jan 18
First Quarter
Jan 26
Full

Hourly Weather History & Observations

Time (CST) Temp. Windchill Dew Point Humidity Pressure Visibility Wind Dir Wind Speed Gust Speed Precip Events Conditions
12:52 AM 30.0 °F 20.5 °F 25.0 °F 82% 30.24 in 10.0 mi WNW 11.5 mph - N/A   Overcast
1:04 AM 28.4 °F 18.5 °F 24.8 °F 86% 30.20 in 10.0 mi WNW 11.5 mph - N/A   Overcast
1:52 AM 30.0 °F 20.5 °F 25.0 °F 82% 30.25 in 10.0 mi NW 11.5 mph - N/A   Overcast
2:15 AM 30.2 °F 19.8 °F 24.8 °F 80% 30.22 in 10.0 mi NW 13.8 mph - N/A   Overcast
2:52 AM 28.9 °F 16.5 °F 24.1 °F 82% 30.27 in 10.0 mi NNW 18.4 mph 25.3 mph N/A   Overcast
3:23 AM 26.6 °F 12.0 °F 21.2 °F 80% 30.24 in 8.0 mi NNW 23.0 mph - N/A   Overcast
3:32 AM 24.8 °F 9.6 °F 19.4 °F 80% 30.25 in 10.0 mi NNW 23.0 mph 29.9 mph N/A   Overcast
3:52 AM 23.0 °F 6.9 °F 18.0 °F 81% 30.30 in 10.0 mi NNW 24.2 mph 29.9 mph N/A   Overcast
4:52 AM 19.9 °F 3.9 °F 15.1 °F 81% 30.33 in 9.0 mi NW 20.7 mph - N/A   Overcast
5:52 AM 17.1 °F -0.3 °F 12.0 °F 81% 30.36 in 10.0 mi NNW 21.9 mph 26.5 mph N/A   Overcast
6:52 AM 17.1 °F 2.0 °F 12.0 °F 81% 30.39 in 6.0 mi NNW 16.1 mph - 0.00 in Snow Light Snow
7:52 AM 14.0 °F 0.5 °F 10.0 °F 84% 30.43 in 10.0 mi NW 11.5 mph - 0.00 in   Mostly Cloudy
8:00 AM 14.0 °F 2.0 °F 10.4 °F 86% 30.37 in 10.0 mi NW 9.2 mph - N/A   Scattered Clouds
8:52 AM 15.1 °F 3.3 °F 9.0 °F 77% 30.44 in 10.0 mi NW 9.2 mph - N/A   Clear
9:52 AM 16.0 °F 1.7 °F 9.0 °F 74% 30.45 in 10.0 mi NNW 13.8 mph 19.6 mph N/A   Mostly Cloudy
10:52 AM 17.1 °F 5.8 °F 10.9 °F 77% 30.46 in 10.0 mi North 9.2 mph - 0.00 in   Overcast
11:52 AM 18.0 °F 6.1 °F 12.0 °F 78% 30.44 in 10.0 mi WNW 10.4 mph - N/A   Overcast
12:52 PM 19.0 °F 10.0 °F 12.9 °F 77% 30.41 in 10.0 mi NW 6.9 mph - N/A   Overcast
1:52 PM 19.4 °F 9.5 °F 12.2 °F 74% 30.34 in 10.0 mi West 8.1 mph - N/A   Overcast
2:52 PM 21.0 °F 14.6 °F 15.1 °F 78% 30.38 in 10.0 mi WSW 4.6 mph - N/A   Overcast
3:52 PM 21.9 °F 12.5 °F 16.0 °F 78% 30.39 in 10.0 mi WSW 8.1 mph - N/A   Mostly Cloudy
4:03 PM 21.2 °F 13.6 °F 15.8 °F 80% 30.34 in 10.0 mi WSW 5.8 mph - N/A   Scattered Clouds
4:52 PM 18.0 °F 7.7 °F 12.9 °F 81% 30.40 in 10.0 mi SSW 8.1 mph - N/A   Clear
5:52 PM 18.0 °F 9.8 °F 12.9 °F 81% 30.40 in 10.0 mi South 5.8 mph - N/A   Clear
6:52 PM 17.1 °F 8.7 °F 12.9 °F 84% 30.39 in 10.0 mi South 5.8 mph - N/A   Clear
7:52 PM 10.0 °F 3.6 °F 8.1 °F 92% 30.38 in 10.0 mi SSE 3.5 mph - N/A   Clear
8:52 PM 9.0 °F - 7.0 °F 92% 30.37 in 10.0 mi Calm Calm - N/A   Clear
9:52 PM 6.1 °F -0.9 °F 3.9 °F 91% 30.36 in 10.0 mi ESE 3.5 mph - N/A   Clear
10:52 PM 10.0 °F - 7.0 °F 87% 30.34 in 10.0 mi Calm Calm - N/A   Clear
11:52 PM 18.0 °F 6.9 °F 12.0 °F 78% 30.32 in 10.0 mi WSW 9.2 mph - N/A   Clear